Regional Weather Roundup
Issued by NWS

Home | Current Version | Previous Version | Graphics & Text | Print | Product List | Glossary On
Versions: 1 2 3 4 5 6 7 8 9 10 11 12 13 14 15 16 17 18 19 20 21 22 23 24 25 26 27 28 29 30 31 32 33 34 35 36 37 38 39 40 41 42 43 44 45 46 47 48 49 50
000
ASUS43 KMKX 182100
RWRWI

WISCONSIN REGIONAL WEATHER ROUNDUP
NATIONAL WEATHER SERVICE MILWAUKEE/SULLIVAN WI
400 PM CDT THU SEP 18 2014

NOTE: "FAIR" INDICATES FEW OR NO CLOUDS BELOW 12,000 FEET WITH NO
SIGNIFICANT WEATHER AND/OR OBSTRUCTIONS TO VISIBILITY.

WIZ001-002-006>008-014>016-023>028-182200-
NORTHWEST WISCONSIN

CITY           SKY/WX    TMP DP  RH WIND       PRES   REMARKS
SUPERIOR ARPT  CLOUDY    50  44  81 NE10      30.11F
ASHLAND        CLOUDY    51  45  79 N8        30.12F
HAYWARD        PTSUNNY   56  50  80 SE6       30.09F
SIREN          SUNNY     63  52  66 SE6       30.07F
RICE LAKE      PTSUNNY   58  50  73 SE10      30.11F
LADYSMITH      MOSUNNY   59  50  72 SE3       30.13F
EAU CLAIRE     NOT AVBL
MENOMONIE      CLEAR     66  53  64 E10       30.08F
NEW RICHMOND   SUNNY     68  55  64 SE9       30.06F
OSCEOLA        SUNNY     68  57  66 E8        30.07F
$$

WIZ003>005-009-010-017-018-182200-
NORTH CENTRAL WISCONSIN

CITY           SKY/WX    TMP DP  RH WIND       PRES   REMARKS
WOODRUFF       CLOUDY    52  45  77 S3        30.13F
RHINELANDER    PTSUNNY   53  45  74 S5        30.14F
EAGLE RIVER    CLOUDY    53  42  66 S7        30.14S
LAND O LAKES   CLOUDY    54  44  67 S6        30.14F
PHILLIPS       PTSUNNY   54  48  80 S6        30.12F
TOMAHAWK       PTSUNNY   56  46  70 SE5       30.15F
MEDFORD        CLOUDY    53  47  81 SE6       30.14S
MERRILL        MOSUNNY   55  47  72 CALM      30.14F
$$

WIZ029-030-035-036-043>047-182200-
CENTRAL WISCONSIN

CITY           SKY/WX    TMP DP  RH WIND       PRES   REMARKS
WAUSAU         PTSUNNY   56  47  71 S8        30.13F
MOSINEE        MOSUNNY   55  48  76 VRB5      30.16F
MARSHFIELD     CLOUDY    55  48  77 SE8       30.14F
STEVENS POINT  CLOUDY    53  45  76 S3        30.16F
WAUPACA        MOSUNNY   59  48  67 SE3       30.16F
WAUTOMA        NOT AVBL
WISC RAPIDS    SUNNY     59  49  69 VRB5      30.15F
CAMP DOUGLAS   MOSUNNY   61  55  82 VRB3      30.12F
$$

WIZ011>013-019>022-031-037>040-048>050-182200-
NORTHEAST WISCONSIN

CITY           SKY/WX    TMP DP  RH WIND       PRES   REMARKS
ANTIGO         CLOUDY    54  46  75 SE3       30.15F
STURGEON BAY   PTSUNNY   55  45  67 NE3       30.17F
GREEN BAY      CLOUDY    57  47  69 E5        30.16F
MANITOWOC      NOT AVBL
APPLETON       MOSUNNY   57  46  67 CALM      30.16F
CLINTONVILLE   CLOUDY    55  45  67 S5        30.16F
OSHKOSH        SUNNY     59  50  72 E3        30.14F
$$

WIZ032>034-041-042-053>061-182200-
SOUTHWEST WISCONSIN

CITY           SKY/WX    TMP DP  RH WIND       PRES   REMARKS
LA CROSSE      PTSUNNY   70  55  59 SE8       30.08F
SPARTA         SUNNY     64  52  63 E3        30.11F
VIROQUA        FAIR      67  54  63 SE6       30.10F
BOSCOBEL       SUNNY     70  56  61 NE9       30.09F
PRAIRIE DU CHI SUNNY     70  51  51 S5        30.07F
PLATTEVILLE    FAIR      68  53  57 CALM      30.10F
$$

WIZ056-057-062-063-064-067-068-182200-
SOUTH CENTRAL WISCONSIN

CITY           SKY/WX    TMP DP  RH WIND       PRES   REMARKS
BARABOO/DELLS  MOSUNNY   61  50  67 NE6       30.13F
LONE ROCK      NOT AVBL
WATERTOWN      MOSUNNY   64  54  71 E5        30.12F
MADISON        MOSUNNY   65  52  62 NE7       30.13F
MIDDLETON      FAIR      64  52  64 SE6       30.13F
MONROE         SUNNY     66  54  63 E3        30.11F
JANESVILLE     MOSUNNY   70  54  56 E5        30.11F
$$

WIZ051-052-058>065-066-070>072-182200-
SOUTHEAST WISCONSIN

CITY           SKY/WX    TMP DP  RH WIND       PRES   REMARKS
MILWAUKEE      CLOUDY    57  51  80 E8        30.16S
WAUKESHA       MOSUNNY   61  52  72 E7        30.15F
MILWAUKEE/TIMM CLOUDY    57  48  72 E6        30.16F
RACINE         CLOUDY    58  52  80 NE8       30.17S
BURLINGTON     MOSUNNY   63  53  68 NE7       30.14S
KENOSHA        CLOUDY    61  54  77 NE9       30.15F
FOND DU LAC    MOSUNNY   61  50  67 VRB5      30.14F
SHEBOYGAN      CLOUDY    57  48  72 VRB5      30.16F
WEST BEND      PTSUNNY   61  50  67 NE6       30.15S
JUNEAU         CLOUDY    62  53  72 N6        30.15F
$$

LSZ147-162-182200-
LAKE SUPERIOR

STATION/POSITION TIME  TEMP    WIND        PRES    WAVE
                       AIR SEA DIR/SP/G            HT/PER
                 (UTC) (F)     (DEG/KT/KT) (MB)    (FT/S)
W MID LAKE BUOY  1950   44 47   80/  8/  8 1021.9F   1/ 3
DEVILS ISLAND    2000   45      60/  8/  9 1021.4F
PORT WING        2000   50      30/ 13/ 15 1020.0F
SAXON HARBOR     2000   49      40/  5/  8 1020.7
$$

LMZ867-665-643>646-182200-
LAKE MICHIGAN

STATION/POSITION TIME  TEMP    WIND        PRES    WAVE
                       AIR SEA DIR/SP/G            HT/PER
                 (UTC) (F)     (DEG/KT/KT) (MB)    (FT/S)
N MID LAKE BUOY  1950   51 59   50/  8/ 10 1022.6F   1/ 3
NORTHPORT PIER   2000   56      90/  6/  8 1022.0F
KEWAUNEE LAKESHO 2000   54      70/  5/  8 1021.2F
SHEBOYGAN LAKESH 2000   51 49   30/ 12/ 13 1022.2F
PORT WASHINGTON  2040   57      50/  9/ 12 1021.7F
ATWATER BUOY     2000   56      40/ 10/ 14 1022.2F
MILWAUKEE LAKESH 2000   55      40/ 11/ 12   N/A
S MID LAKE BUOY  1950   63 66   30/  2/  2 1020.6F   2/ 7
KENOSHA   LAKESH 2000   56      20/ 12/ 16 1020.7F
$$

TC  - TEMPERATURE IN CELSIUS
VSB - VISIBILITY IN STATUTE MILES
WCI - WIND CHILL INDEX
HX  - HEAT INDEX



USA.gov is the U.S. government's official web portal to all federal, state and local government web resources and services.